[[{"header":{"parameterUnit":"m.s-1","parameterCategory":1,"la1":30.2991,"la2":30.254,"lo1":-89.0895,"lo2":-89.0444,"dy":0.0017,"dx":0.0017,"nx":28,"ny":28,"refTime":"2025-06-21T03:00:00:Z","depth":0,"parameterNumber":2,"parameterNumberName":"U-component_of_WINDS"},"data":[0,0,0,0,0,0,0,0,0,0,0,0,0,0,0,0,0,0,0,0,0,0,0,0,0,0,0,0,0,0,0,0,0,0,0,0,0,0,0,0,0,0,0,0,0,0,0,0,0,0,0,0,0,0,0,0,0,0,1.5355,1.5356,0,1.5452,1.5453,1.5454,1.5467,1.5466,1.5466,1.5465,1.5559,1.5562,1.5565,0,0,0,0,0,0,0,0,0,0,0,0,0,1.5177,1.518,1.5355,1.5356,1.5357,1.5451,1.5453,1.5454,1.5468,1.5466,1.5465,1.5464,1.5558,1.5562,1.5566,0,0,0,0,0,0,0,0,0,0,0,0,0,1.5262,1.5181,1.5355,1.5375,1.5378,1.5451,1.5453,1.5454,1.5468,1.5466,1.5465,1.5464,1.5557,1.5561,1.5566,1.5624,0,0,1.5582,1.5584,0,0,0,0,0,0,0,0,1.5257,1.5268,1.5371,1.5374,1.5377,1.5446,1.5425,1.5511,1.5468,1.5434,1.5465,1.5463,1.5522,1.553,1.5551,1.5628,1.5632,1.5582,1.5585,1.5587,1.5589,0,0,0,0,0,0,0,1.5251,1.5264,1.5393,1.5373,1.5376,1.5378,1.5389,1.5441,1.5484,1.5436,1.5438,1.5449,1.5524,1.5546,1.5553,1.5633,1.5582,1.5586,1.5589,1.5591,1.5762,1.5763,0,0,0,0,0,0,1.5242,1.5259,1.539,1.5396,1.5313,1.5383,1.5394,1.5425,1.5483,1.5491,1.545,1.545,1.5538,1.5547,1.5556,1.5627,1.5587,1.5592,1.5595,1.576,1.5762,1.5764,0,0,0,0,0,0,1.5238,1.5254,1.5386,1.5328,1.5345,1.5387,1.5422,1.5428,1.545,1.5494,1.5501,1.5466,1.5537,1.5549,1.5607,1.563,1.5594,1.5599,1.5758,1.5761,1.5763,1.5768,0,0,0,0,0,0,1.5233,1.5252,1.5275,1.5328,1.5348,1.5436,1.5423,1.5431,1.546,1.5459,1.551,1.5517,1.5537,1.5599,1.5612,1.5636,1.5603,1.5756,1.5759,1.5762,1.5766,1.577,1.5774,0,0,0,0,0,1.5227,1.5272,1.5277,1.5292,1.5378,1.5438,1.5449,1.5472,1.5461,1.5484,1.5512,1.5516,1.5626,1.5605,1.5619,1.5646,1.5755,1.5759,1.5762,1.5764,1.5769,1.5773,0,0,0,0,0,0,1.5219,1.5279,1.5285,1.5349,1.5388,1.544,1.5469,1.5477,1.5519,1.5517,1.5542,1.5554,1.561,1.5634,1.561,1.5704,1.5689,1.5696,1.5686,1.5691,1.5695,1.5687,1.5607,0,0,0,0,0,1.5225,1.5269,1.5319,1.5371,1.5391,1.5427,1.5453,1.5468,1.5509,1.5525,1.5558,1.5596,1.5639,1.5667,1.5709,1.577,1.578,1.5795,1.5799,1.5802,1.5806,1.5839,1.5846,1.5775,1.5775,1.5775,0,0,1.5237,1.5276,1.5302,1.5371,1.5403,1.5447,1.544,1.5487,1.552,1.5532,1.5588,1.5613,1.5658,1.5717,1.5745,1.5738,1.5828,1.5806,1.5808,1.5811,1.5843,1.585,1.5856,1.5777,1.5777,1.5776,0,0,1.5281,1.5316,1.5363,1.5395,1.5445,1.5469,1.548,1.5531,1.5548,1.5606,1.5615,1.5654,1.5728,1.5759,1.5784,1.5841,1.5845,1.5854,1.5874,1.5906,1.5911,1.5916,1.5935,1.5942,1.5859,1.5859,1.5859,0,1.529,1.5358,1.5385,1.5432,1.5461,1.5477,1.5523,1.5553,1.5612,1.5632,1.5624,1.5718,1.5749,1.5815,1.5829,1.585,1.5862,1.5848,1.5909,1.5914,1.5919,1.5937,1.5945,1.586,1.586,1.586,1.586,0,1.5365,1.5413,1.5444,1.5504,1.5537,1.5583,1.5615,1.5645,1.5657,1.5681,1.5739,1.5777,1.5827,1.5844,1.5856,1.5912,1.5906,1.5904,1.5889,1.5926,1.5944,1.5951,1.5861,1.586,1.586,1.586,0,0,1.5406,1.5481,1.5492,1.5519,1.5575,1.5611,1.5657,1.5708,1.5732,1.5773,1.5812,1.5874,1.5873,1.5901,1.5917,1.5945,1.5986,1.5939,1.594,1.5945,1.6049,1.6049,1.6057,1.599,1.5992,1.5993,1.6044,0,1.5456,1.5541,1.5567,1.5638,1.5681,1.5696,1.5737,1.5774,1.5798,1.5837,1.5863,1.5907,1.5902,1.5919,1.5948,1.5975,1.6007,1.5972,1.6024,1.6026,1.6011,1.6066,1.6067,1.6114,1.6052,1.6053,1.6054,0,1.5525,1.5569,1.5645,1.5695,1.5714,1.5751,1.5799,1.5836,1.5879,1.5894,1.5927,1.594,1.5988,1.5972,1.6037,1.6013,1.6036,1.6052,1.6055,1.6059,1.6041,1.6071,1.613,1.6136,1.6065,1.6064,1.6063,0,1.5546,1.5624,1.5679,1.5702,1.5762,1.5787,1.5813,1.5855,1.5883,1.5925,1.5944,1.599,1.6014,1.6049,1.6074,1.6061,1.6136,1.6123,1.6148,1.6148,1.6162,1.6161,1.6224,1.618,1.618,1.6179,1.6179,0,1.5598,1.5643,1.5689,1.5723,1.5773,1.5802,1.5851,1.5877,1.5915,1.5952,1.5968,1.6003,1.6035,1.6073,1.6093,1.6143,1.6154,1.6167,1.6171,1.6164,1.6163,1.6178,1.6175,1.6181,1.6181,1.6181,1.618,0,1.5628,1.5661,1.5722,1.5775,1.579,1.5824,1.5869,1.5901,1.5926,1.5974,1.5987,1.6025,1.6072,1.6101,1.6159,1.6172,1.6227,1.6231,1.6212,1.6214,1.6238,1.6234,1.6312,1.6323,1.6273,1.6273,1.6274,0,1.5658,1.5694,1.5751,1.5779,1.5806,1.5849,1.5879,1.5909,1.5939,1.5991,1.6016,1.6064,1.6104,1.6177,1.6209,1.6253,1.6257,1.6282,1.6264,1.6256,1.6256,1.6253,1.6256,1.6284,1.6284,1.6285,1.6285,0,1.5708,1.5723,1.5766,1.5816,1.5851,1.5891,1.593,1.5951,1.5987,1.602,1.6068,1.6099,1.616,1.6206,1.6254,1.6279,1.6287,1.6291,1.6299,1.6291,1.6279,1.6285,1.6219,1.6288,1.6288,1.6288,1.6288,1.6287,1.5738,1.577,1.5816,1.5864,1.5897,1.5933,1.5967,1.5997,1.6038,1.6091,1.6105,1.6156,1.6197,1.6262,1.6288,1.6327,1.6323,1.6335,1.6338,1.634,1.634,1.6274,1.6336,1.6336,1.6336,1.6336,1.6336,0,1.5788,1.5818,1.5862,1.5917,1.5955,1.5962,1.6006,1.6036,1.6081,1.6119,1.6159,1.6214,1.6259,1.6296,1.6342,1.6366,1.6371,1.6377,1.6374,1.638,1.6341,1.6329,1.6372,1.6372,1.6372,1.6372,1.6372,1.6372,1.5818,1.5872,1.5892,1.5963,1.5992,1.6043,1.6068,1.6101,1.6132,1.6194,1.6232,1.6257,1.6294,1.6343,1.6385,1.6394,1.641,1.6415,1.6424,1.6387,1.6383,1.6379,1.6367,1.6418,1.6418,1.646,1.646,1.6461]},{"header":{"parameterUnit":"m.s-1","parameterCategory":1,"la1":30.2991,"la2":30.254,"lo1":-89.0895,"lo2":-89.0444,"dy":0.0017,"dx":0.0017,"nx":28,"ny":28,"refTime":"2025-06-21T03:00:00:Z","depth":0,"parameterNumber":3,"parameterNumberName":"V-component_of_WINDS"},"data":[0,0,0,0,0,0,0,0,0,0,0,0,0,0,0,0,0,0,0,0,0,0,0,0,0,0,0,0,0,0,0,0,0,0,0,0,0,0,0,0,0,0,0,0,0,0,0,0,0,0,0,0,0,0,0,0,0,0,2.1264,2.1263,0,2.1178,2.1177,2.1176,2.1114,2.1113,2.1113,2.1112,2.1018,2.1017,2.1015,0,0,0,0,0,0,0,0,0,0,0,0,0,2.137,2.1368,2.1264,2.1263,2.1262,2.1178,2.1177,2.1175,2.1114,2.1113,2.1112,2.1112,2.1019,2.1017,2.1014,0,0,0,0,0,0,0,0,0,0,0,0,0,2.1308,2.1368,2.1264,2.1221,2.1216,2.1178,2.1177,2.1175,2.1114,2.1113,2.1112,2.1112,2.102,2.1017,2.1014,2.101,0,0,2.1005,2.1003,0,0,0,0,0,0,0,0,2.1311,2.1304,2.1229,2.1224,2.1219,2.1156,2.1179,2.112,2.1114,2.1153,2.1112,2.1111,2.1064,2.1058,2.1043,2.1006,2.1002,2.1004,2.1003,2.1001,2.1,0,0,0,0,0,0,0,2.1316,2.1307,2.123,2.1228,2.1222,2.1204,2.1194,2.1168,2.1114,2.1149,2.1144,2.1135,2.1062,2.1046,2.104,2.1,2.1005,2.1002,2.1,2.0999,2.0953,2.0953,0,0,0,0,0,0,2.1327,2.1311,2.1232,2.1227,2.1264,2.1203,2.1192,2.1177,2.1114,2.1104,2.1136,2.1133,2.1052,2.1044,2.1037,2.1027,2.1001,2.0998,2.0997,2.0952,2.0953,2.0953,0,0,0,0,0,0,2.133,2.1321,2.1236,2.1268,2.1256,2.1202,2.1185,2.1175,2.116,2.1104,2.1093,2.1131,2.1051,2.1041,2.1017,2.1022,2.0997,2.0994,2.0951,2.0952,2.0953,2.1007,0,0,0,0,0,0,2.1333,2.1322,2.1322,2.1268,2.1254,2.122,2.1185,2.1174,2.1155,2.115,2.1096,2.1086,2.1049,2.1022,2.1014,2.1018,2.0992,2.095,2.0952,2.0953,2.1005,2.101,2.1014,0,0,0,0,0,2.1337,2.134,2.1322,2.1313,2.1253,2.122,2.1212,2.1171,2.1156,2.1154,2.1118,2.1088,2.1023,2.102,2.101,2.1014,2.095,2.0951,2.0953,2.1003,2.1009,2.1014,0,0,0,0,0,0,2.1395,2.1332,2.1312,2.1298,2.1265,2.121,2.1207,2.1179,2.1149,2.1145,2.1094,2.1082,2.1063,2.1035,2.1033,2.1005,2.0983,2.0982,2.1024,2.1029,2.1034,2.1041,2.0989,0,0,0,0,0,2.1406,2.1387,2.1332,2.1325,2.131,2.1261,2.1245,2.1217,2.118,2.1165,2.1127,2.1091,2.1062,2.1044,2.1015,2.1,2.0986,2.0997,2.1002,2.1006,2.1007,2.0995,2.0999,2.0958,2.0958,2.0958,0,0,2.1429,2.1392,2.1383,2.1336,2.1307,2.1286,2.125,2.1229,2.1213,2.1161,2.1137,2.1107,2.1063,2.1043,2.1033,2.102,2.1015,2.1008,2.1012,2.101,2.0997,2.1,2.1004,2.0959,2.0958,2.0958,0,0,2.1459,2.143,2.1421,2.1392,2.1349,2.1317,2.1314,2.1263,2.1242,2.1216,2.1177,2.1155,2.1107,2.1076,2.1055,2.1072,2.1042,2.1063,2.1088,2.1077,2.1081,2.1083,2.1088,2.109,2.1063,2.1064,2.1064,0,2.1492,2.1461,2.1418,2.14,2.138,2.1333,2.1321,2.1295,2.1244,2.123,2.1217,2.1154,2.1122,2.1093,2.1097,2.1082,2.1076,2.1069,2.1084,2.1086,2.1088,2.1092,2.1094,2.1066,2.1066,2.1066,2.1065,0,2.1503,2.1482,2.1479,2.1432,2.1411,2.1396,2.1349,2.1332,2.1304,2.1272,2.1245,2.1204,2.1165,2.1156,2.1128,2.1123,2.1116,2.1094,2.107,2.1095,2.1098,2.1099,2.107,2.1069,2.1068,2.1068,0,0,2.1569,2.1498,2.1497,2.1475,2.1423,2.1404,2.1386,2.1349,2.1335,2.13,2.1282,2.1242,2.1221,2.1196,2.1164,2.1155,2.1169,2.1133,2.1131,2.1141,2.1158,2.1175,2.1178,2.1149,2.1149,2.1149,2.1161,0,2.1591,2.1558,2.1518,2.1497,2.1476,2.143,2.1414,2.1379,2.1348,2.1323,2.1288,2.126,2.1235,2.1219,2.1208,2.117,2.1171,2.1168,2.113,2.1129,2.1142,2.1179,2.1197,2.1211,2.1162,2.1162,2.1163,0,2.1612,2.1581,2.156,2.1508,2.1497,2.1484,2.1445,2.1423,2.1381,2.1359,2.1331,2.1297,2.1273,2.1252,2.1216,2.1215,2.1196,2.1175,2.1174,2.1169,2.1148,2.1174,2.1214,2.1216,2.1164,2.1164,2.1164,0,2.1661,2.1614,2.1594,2.1576,2.1516,2.1507,2.1481,2.1439,2.1419,2.1384,2.137,2.1332,2.1312,2.1282,2.1238,2.1227,2.1206,2.1182,2.1186,2.1187,2.1184,2.1184,2.1221,2.1172,2.1172,2.1172,2.1172,0,2.169,2.1678,2.1615,2.1603,2.1587,2.154,2.1525,2.1495,2.1457,2.1437,2.1394,2.1375,2.1318,2.1291,2.1256,2.1231,2.1222,2.1202,2.1193,2.1206,2.1208,2.1193,2.119,2.1173,2.1173,2.1173,2.1173,0,2.1742,2.17,2.1675,2.162,2.1606,2.1596,2.1548,2.1533,2.1499,2.1473,2.1464,2.141,2.1377,2.133,2.1281,2.1257,2.1237,2.1222,2.1252,2.1246,2.1252,2.1252,2.128,2.128,2.1232,2.1233,2.1233,0,2.1763,2.1753,2.1697,2.1681,2.1657,2.1631,2.161,2.1562,2.1542,2.1492,2.1483,2.1446,2.1415,2.1362,2.1317,2.1279,2.1263,2.1275,2.1257,2.127,2.1262,2.1263,2.1261,2.128,2.1281,2.1281,2.1282,0,2.1804,2.1784,2.1756,2.1721,2.1697,2.1666,2.1634,2.1622,2.1567,2.1545,2.1511,2.1487,2.1437,2.14,2.1356,2.1326,2.1294,2.1288,2.1286,2.13,2.1317,2.1307,2.1263,2.1288,2.1287,2.1287,2.1286,2.1286,2.1841,2.1829,2.1788,2.1758,2.1728,2.1698,2.1681,2.1645,2.1616,2.1574,2.1546,2.1513,2.1469,2.1406,2.1378,2.135,2.1337,2.1335,2.1334,2.1335,2.1339,2.1322,2.1341,2.1341,2.1341,2.1341,2.134,0,2.1879,2.185,2.1823,2.1779,2.1755,2.1728,2.169,2.167,2.1643,2.1605,2.1575,2.1534,2.1498,2.145,2.1409,2.1396,2.138,2.1386,2.1387,2.138,2.1353,2.1358,2.14,2.14,2.14,2.14,2.14,2.14,2.1897,2.1875,2.1849,2.1811,2.1781,2.175,2.173,2.1701,2.1671,2.1629,2.1599,2.1568,2.1525,2.1481,2.1446,2.1432,2.1419,2.143,2.1412,2.1388,2.1382,2.1377,2.1382,2.1428,2.1428,2.1441,2.1442,2.1442]}]]